Preview of NWS' New Version of Forecast
This preview is not operational and should not be used for support decisions.

Regional Weather Roundup (RWR)

Issued by National Weather Service (NWS)

                            
000
ASUS46 KSEW 231910
RWRWA 

WASHINGTON REGIONAL WEATHER ROUNDUP
NATIONAL WEATHER SERVICE SEATTLE WA
1200 PM PDT SUN JUN 23 2019

NOTE:"FAIR" INDICATES FEW OR NO CLOUDS BELOW 12,000 FEET WITH NO 
SIGNIFICANT WEATHER AND/OR OBSTRUCTIONS TO VISIBILITY.

WAZ507-509-555>559-232000-
SEATTLE, TACOMA, EVERETT, AND VICINITY
  
CITY           SKY/WX    TMP DP  RH WIND       PRES   REMARKS
EVERETT        CLOUDY    54  52  93 VRB5      30.20S FOG              
BOEING FIELD   CLOUDY    60  48  64 S9        30.19S                  
RENTON         CLOUDY    58  51  78 CALM      30.19S                  
SEATAC AIRPORT CLOUDY    58  48  69 SW8       30.19S                  
JBLM-MCCHORD   CLOUDY    59  53  81 S7        30.19S                  
PUYALLUP       CLOUDY    59  52  77 VRB6      30.20S                  
BREMERTON      CLOUDY    57  50  77 VRB3      30.19S                  
JBLM-FT LEWIS  CLOUDY    61  54  76 S8        30.18S                  
TACOMA NARROWS CLOUDY    59  48  67 S8        30.19R                  
$$
 
WAZ001-503-506-510-514-515-232000-
NORTH INTERIOR
  
CITY           SKY/WX    TMP DP  RH WIND       PRES   REMARKS
BELLINGHAM     CLOUDY    59  50  72 S12       30.14S                  
FRIDAY HARBOR  CLOUDY    60  47  61 SW9       30.15R                  
EASTSOUND      PTSUNNY   61  52  72 S10       30.13S                  
PORT ANGELES   MOSUNNY   59  48  67 W20G29    30.17S                  
EDIZ HOOK      FAIR      57  49  74 W10G21    30.18R                  
PORT TOWNSEND  CLOUDY    59  48  67 VRB5      30.18S                  
NAS WHIDBEY    MOSUNNY   63  48  58 SW16      30.21S                  
ARLINGTON      CLOUDY    58  48  69 W5        30.20R                  
BURLINGTON     PTSUNNY   64  50  59 S13       30.17R                  
$$
 
WAZ020-022-039-040-504-511-512-232000-
SOUTHWEST INTERIOR
  
CITY           SKY/WX    TMP DP  RH WIND       PRES   REMARKS
SHELTON        CLOUDY    65  46  50 SW13      30.14F                  
OLYMPIA        CLOUDY    62  46  55 W6        30.18S                  
CHEHALIS       CLOUDY    63  52  67 VRB7G13   30.20S HAZE             
KELSO          CLOUDY    62  50  64 W7        30.23S                  
VANCOUVER      CLOUDY    62  46  55 NW5       30.22F                  
SCAPPOOSE, OR  CLOUDY    62  48  60 CALM      30.21F                  
PORTLAND, OR   PTSUNNY   64  46  52 N5        30.23F                  
$$
 
WAZ021-516-517-232000-
WASHINGTON COAST
  
CITY           SKY/WX    TMP DP  RH WIND       PRES   REMARKS
FORKS          CLOUDY    57  46  66 NW9       30.22R                  
HOQUIAM        CLOUDY    58  49  72 W15G22    30.23R                  
ASTORIA, OR    LGT RAIN  56  53  90 W8        30.24S                  
$$
 
WAZ019-023-024-040-567>569-232000-
CASCADE MOUNTAINS AND COLUMBIA GORGE
  
CITY           SKY/WX    TMP DP  RH WIND       PRES   REMARKS
STAMPEDE PASS  FOG       46  44  93 VRB7      30.15S VSB 1/4          
TROUTDALE, OR  CLOUDY    63  47  55 VRB5      30.23S                  
HOOD RIVER, OR MOCLDY    64  45  48 NW15G24   30.16F                  
THE DALLES, OR SUNNY     68  46  45 NW24G31   30.11F                  
$$

WAZ026-027-041>044-520-521-232000-
EAST SLOPES
  
CITY           SKY/WX    TMP DP  RH WIND       PRES   REMARKS
OMAK           PTSUNNY   72  40  31 VRB3      29.94F                  
WENATCHEE      SUNNY     74  40  29 NW22G32   29.96F                  
ELLENSBURG     SUNNY     68  45  43 NW29G36   30.03F                  
YAKIMA         MOSUNNY   75  43  31 NW10G20   30.02F                  
SUNNYSIDE ARPT PTCLDY    75  47  37 NW15      30.00                   
YAKIMA TC      FAIR      73  37  26 NW17G25   30.01F                  
$$

WAZ028-034-035-232000-
COLUMBIA BASIN
  
CITY           SKY/WX    TMP DP  RH WIND       PRES   REMARKS
EPHRATA        PTSUNNY   75  35  23 W5        29.94F                  
MOSES LAKE     PTSUNNY   75  39  27 VRB7      29.97F                  
PASCO          CLOUDY    77  45  32 SW18G25   30.00F                  
RICHLAND ARPT  CLOUDY    77  40  26 SW6       29.99                   
HERMISTON, OR  CLOUDY    75  44  33 SW15G23   30.02F                  
$$

WAZ036>038-232000-
NORTHEAST WASHINGTON
  
CITY           SKY/WX    TMP DP  RH WIND       PRES   REMARKS
SPOKANE GEIGER PTSUNNY   66  41  40 SW13      29.98F                  
SPOKANE FELTS  CLOUDY    68  46  45 CALM      29.98F                  
FAIRCHILD AFB  PTSUNNY   68  41  37 SW12G24   29.97F                  
COEURDALENE,ID CLOUDY    59  46  62 SW6       30.02S                  
DEER PARK      PTSUNNY   64  45  49 S13       29.99S                  
$$

WAZ029>033-232000-
SOUTHEAST WASHINGTON
  
CITY           SKY/WX    TMP DP  RH WIND       PRES   REMARKS
PULLMAN        CLOUDY    65  45  48 W13G22    30.05F                  
LEWISTON, ID   PTSUNNY   73  40  30 NW9G22    29.99F                  
WALLA WALLA    CLOUDY    68  44  42 SW15G24   30.04F                  
PENDLETON, OR  PTSUNNY   73  43  33 SW14G21   30.05F                  
$$